Wind_Speed
86 88 85 87 91 94 99 101 101 106 109 110 114 116 115 114 113 110 106 111 111 108 92 88 85 88 85 85 85 82 86 80 77 77 74 73 83 86 84 82 81 93 100
84 87 88 93 94 99 103 105 108 109 112 115 115 119 111 105 114 110 112 107 91 85 80 77 75 74 72 70 71 71 74 76 74 71 70 69 71 74 81 92 94 98 92
90 95 94 96 101 106 109 110 113 115 117 118 114 103 104 112 113 108 96 80 68 62 59 59 60 60 56 56 56 55 55 59 60 59 61 62 62 65 67 72 76 73 64
97 96 97 105 109 113 113 116 119 121 120 107 95 102 101 98 89 79 55 44 39 34 32 28 27 28 31 34 35 34 35 38 43 48 52 53 48 50 46 54 62 62 59
100 100 106 111 113 113 115 119 118 109 101 95 100 95 85 64 47 40 25 15 14 16 17 22 20 21 21 22 22 23 22 23 27 29 36 35 28 22 26 33 52 54 57
103 106 110 113 113 115 117 116 106 88 94 96 86 71 45 38 31 22 15 16 19 23 24 25 26 26 24 27 26 20 17 14 15 18 21 12 20 17 15 38 44 59 55
108 111 112 111 116 112 103 97 96 94 83 71 55 36 26 15 13 14 19 22 25 27 30 31 31 29 29 27 28 30 21 15 10 7 9 26 19 31 38 42 54 57 57
110 110 112 106 98 95 90 87 87 76 59 39 24 20 18 20 19 19 24 27 30 31 31 32 32 32 32 33 30 28 29 22 12 3 21 38 34 48 46 51 59 60 58
105 97 94 92 90 90 82 72 67 45 32 23 19 21 22 24 24 24 28 31 33 33 33 33 31 31 30 28 30 28 26 25 17 3 22 37 38 32 36 50 56 52 50
108 111 116 91 76 72 71 55 39 25 22 21 21 20 23 25 29 31 32 34 35 35 34 32 30 29 31 30 28 27 25 24 19 13 5 33 50 43 42 35 42 53 50
96 86 79 73 69 62 44 34 25 24 25 26 26 25 28 29 30 35 34 36 36 37 36 33 33 30 28 26 27 25 24 23 20 16 16 11 34 42 46 45 39 48 48
80 73 66 58 51 42 33 30 28 31 31 32 33 31 33 36 38 39 41 39 37 38 39 37 34 31 31 27 26 26 23 21 20 17 16 9 14 34 48 43 37 43 47
69 63 48 42 37 32 32 33 35 36 37 38 39 40 41 42 44 42 42 41 42 42 39 37 36 35 32 31 29 28 28 25 23 21 22 16 12 16 29 42 42 45 44
50 40 36 31 32 32 36 36 38 39 41 47 51 48 48 48 45 47 47 46 46 46 44 44 41 40 39 38 38 36 34 34 32 29 24 28 21 18 17 31 44 48 48
35 33 34 35 36 37 41 41 44 45 47 51 49 49 51 50 51 49 49 49 49 48 48 47 45 45 43 42 42 43 43 42 41 37 34 34 34 28 26 24 36 53 59
30 32 35 40 43 45 47 48 50 50 52 51 49 50 51 51 51 50 49 48 49 50 50 51 51 51 50 50 50 49 48 46 44 44 42 40 42 41 37 35 34 36 61
33 31 40 45 51 48 49 51 49 50 51 49 50 53 54 48 50 51 53 52 52 51 51 53 55 57 58 58 57 55 54 54 51 47 46 44 47 50 48 45 43 42 40
35 34 15 46 56 51 49 49 48 47 50 52 54 50 53 54 56 56 55 55 55 56 59 61 61 61 59 59 59 57 56 57 57 57 56 56 55 51 55 58 53 53 49
38 35 35 44 48 48 45 47 49 52 54 53 53 54 59 57 59 59 60 61 61 59 60 61 61 62 62 65 66 64 63 65 67 67 65 64 63 63 56 56 59 61 60
37 36 36 40 46 45 49 49 49 50 54 56 58 55 61 61 63 63 65 67 66 66 65 66 65 67 69 70 71 73 75 76 75 73 74 72 67 65 67 64 64 63 66
36 37 42 44 51 47 46 52 58 57 56 55 59 61 66 66 67 67 68 69 70 71 73 75 77 76 79 82 80 81 80 81 82 82 82 80 78 76 74 73 73 73 74
40 43 45 48 51 51 55 57 58 59 60 62 65 67 65 66 69 72 73 72 75 79 82 83 84 84 85 88 90 92 91 89 93 93 90 90 89 89 87 88 85 85 81
45 48 50 52 52 58 59 59 63 65 67 69 70 70 68 73 76 79 82 84 85 88 92 92 95 97 94 96 101 104 103 100 100 102 103 104 103 101 100 101 99 94 96
51 53 54 54 56 64 66 63 65 69 70 73 73 73 78 81 84 86 89 93 95 96 99 101 103 106 105 106 108 114 117 117 117 111 112 114 116 114 111 110 110 103 105
53 56 57 58 62 67 68 69 71 71 71 75 77 80 85 90 93 97 101 102 104 106 110 112 113 116 118 122 121 124 124 124 122 117 105 108 109 115 116 114 113 112 114
56 57 59 66 69 68 69 74 75 78 83 86 89 91 94 98 102 107 109 111 115 118 121 123 125 126 129 130 130 128 123 117 113 111 105 98 97 101 109 115 109 110 113
Wind_Direction
286 287 288 294 295 299 294 296 297 299 297 296 297 298 299 297 298 298 297 295 295 297 293 288 286 285 281 276 276 275 273 271 265 263 257 248 244 248 248 246 247 247 252
287 290 293 298 296 297 295 293 295 298 299 299 299 297 297 301 303 304 296 296 296 296 289 288 284 282 279 275 275 274 271 269 268 263 260 258 252 246 237 242 246 251 255
291 290 292 295 296 295 294 294 294 297 297 297 298 299 301 309 305 299 297 297 297 295 292 289 286 282 279 275 273 271 269 268 267 264 259 255 252 246 250 252 254 254 249
296 294 293 293 293 294 293 295 297 297 297 296 297 301 305 305 306 300 298 294 295 293 295 301 302 300 295 292 288 284 277 270 262 257 256 252 250 251 254 256 252 248 239
297 293 290 292 293 294 295 297 295 295 294 298 306 305 304 303 302 303 310 332 2 4 6 4 359 358 349 334 319 311 301 286 268 262 253 246 246 242 238 273 245 237 232
292 293 290 292 293 295 294 294 294 299 304 306 304 302 294 298 306 309 333 7 7 10 11 11 10 10 7 9 7 349 334 319 290 263 241 218 186 171 303 264 241 243 240
290 292 292 292 292 291 291 291 294 303 305 303 299 296 304 314 326 336 345 354 356 357 355 356 356 359 0 7 8 14 4 353 336 263 176 147 176 186 205 241 236 245 246
291 290 291 289 291 292 295 300 303 305 301 299 307 312 325 326 323 326 336 341 343 345 344 345 346 349 351 353 360 9 12 8 10 231 165 180 188 212 219 229 240 242 239
288 288 290 290 292 297 301 302 303 297 291 297 307 312 318 323 327 330 331 331 329 330 331 334 336 336 337 342 346 356 1 8 11 11 192 199 204 219 220 225 231 235 231
284 286 286 291 296 299 302 300 296 293 298 304 305 308 312 319 320 322 322 321 321 322 322 325 325 325 327 330 332 336 346 353 4 9 224 210 212 212 219 236 234 232 231
287 287 292 294 298 301 297 291 285 287 284 294 298 303 305 309 311 313 314 314 316 317 316 318 316 315 313 315 316 321 328 332 337 351 357 242 231 228 224 235 233 226 224
287 291 296 300 297 297 304 299 296 294 300 303 306 306 304 304 304 306 309 309 309 311 310 312 313 311 310 307 307 307 308 313 315 318 314 333 251 233 234 235 228 216 220
291 294 295 296 299 298 300 294 293 292 296 300 297 299 298 299 300 299 299 300 302 302 304 303 305 306 302 302 301 300 301 300 300 295 296 298 288 253 235 233 232 224 227
292 297 297 295 296 294 290 289 294 295 291 288 295 297 296 294 294 294 294 296 298 300 302 302 303 302 300 298 299 297 297 297 295 291 279 282 275 265 264 240 228 225 227
292 295 294 294 293 291 293 294 294 295 295 296 295 295 294 294 292 291 294 298 300 301 301 300 300 298 297 296 295 295 294 293 291 287 281 278 276 260 254 253 238 230 226
290 289 290 292 290 291 291 292 291 290 292 293 292 292 295 296 295 295 296 296 298 298 298 299 299 297 296 295 293 291 287 284 280 279 279 273 271 271 260 249 245 242 228
287 293 316 299 294 292 291 288 288 289 291 292 292 296 296 293 293 293 294 295 296 296 295 294 296 296 297 296 295 293 291 289 284 275 272 268 266 268 267 261 254 245 243
292 296 326 285 289 286 288 291 290 290 293 293 293 295 293 296 295 297 297 297 295 295 297 299 297 294 293 292 291 289 287 285 282 280 279 279 273 259 261 265 260 255 244
295 289 280 282 286 290 296 296 292 293 294 294 294 296 296 298 296 300 300 298 297 300 299 298 296 294 293 293 291 288 287 287 284 279 276 275 274 273 263 256 257 258 254
292 291 289 289 289 292 297 297 297 297 296 296 296 299 298 299 298 299 299 298 296 296 296 295 295 294 292 290 289 288 287 286 283 280 276 274 269 264 267 264 263 256 252
291 294 296 298 299 297 295 298 300 298 297 295 296 296 298 298 296 297 298 296 293 293 294 295 295 293 292 289 287 287 286 285 284 282 277 274 272 268 263 262 260 255 255
293 298 301 301 298 295 298 300 299 299 297 298 298 297 296 296 296 297 295 294 291 291 292 292 290 290 289 288 288 288 287 286 286 284 282 279 275 272 265 263 263 261 256
291 295 298 298 294 296 299 302 301 301 300 298 299 297 297 298 298 297 297 296 296 293 293 294 293 293 292 290 289 288 286 284 281 279 279 277 275 272 271 269 263 260 256
292 296 297 295 292 296 303 301 301 303 301 300 301 299 299 298 297 298 297 296 296 294 293 292 292 292 290 289 288 288 290 290 286 281 278 275 274 272 268 265 264 259 258
297 297 296 295 297 300 303 303 305 306 304 302 301 300 300 300 299 298 298 298 296 295 295 294 293 293 293 294 294 292 290 290 288 284 276 273 270 270 267 263 262 261 255
295 295 300 300 303 304 305 304 304 304 305 304 303 303 301 300 299 298 298 298 296 296 296 296 297 295 296 295 294 294 292 289 286 286 281 275 269 268 268 267 261 258 256
Height
10872 10869 10866 10863 10859 10854 10847 10841 10833 10827 10821 10812 10803 10796 10789 10780 10772 10765 10757 10750 10740 10728 10719 10713 10707 10706 10705 10701 10699 10698 10701 10704 10709 10716 10731 10740 10747 10748 10757 10758 10762 10767 10771
10861 10859 10855 10850 10845 10838 10832 10826 10819 10812 10802 10795 10785 10776 10770 10762 10753 10741 10733 10723 10712 10704 10698 10692 10689 10687 10685 10685 10683 10680 10680 10684 10688 10694 10703 10708 10717 10724 10734 10738 10738 10745 10755
10852 10846 10842 10836 10829 10823 10816 10811 10802 10796 10785 10776 10768 10759 10751 10741 10730 10719 10709 10702 10694 10688 10685 10681 10677 10672 10670 10671 10672 10670 10669 10670 10673 10676 10680 10687 10699 10707 10711 10718 10723 10731 10736
10837 10835 10829 10821 10813 10807 10802 10796 10788 10778 10769 10759 10750 10742 10733 10721 10709 10704 10696 10691 10685 10681 10678 10674 10669 10666 10663 10661 10661 10660 10661 10662 10664 10665 10667 10675 10690 10697 10707 10708 10711 10713 10719
10827 10821 10815 10807 10799 10793 10785 10777 10771 10761 10752 10744 10735 10728 10719 10708 10702 10698 10692 10688 10683 10679 10676 10671 10666 10663 10660 10657 10656 10655 10653 10653 10654 10655 10659 10669 10685 10691 10699 10700 10695 10700 10710
10818 10810 10802 10794 10786 10780 10772 10763 10754 10745 10739 10732 10723 10715 10708 10702 10700 10697 10689 10684 10680 10676 10673 10669 10666 10661 10658 10655 10652 10649 10647 10644 10646 10649 10652 10669 10678 10683 10699 10691 10688 10688 10700
10804 10796 10789 10781 10773 10763 10756 10747 10741 10734 10725 10718 10713 10707 10701 10698 10696 10692 10687 10681 10677 10674 10671 10666 10662 10659 10656 10654 10652 10649 10643 10640 10642 10643 10649 10657 10663 10672 10656 10673 10677 10676 10687
10793 10784 10775 10769 10759 10752 10743 10738 10731 10724 10716 10712 10707 10703 10697 10694 10691 10686 10681 10677 10674 10671 10667 10664 10659 10655 10651 10649 10649 10647 10642 10638 10639 10639 10645 10639 10633 10650 10656 10659 10662 10668 10676
10780 10771 10763 10754 10746 10739 10732 10725 10720 10714 10710 10706 10702 10700 10695 10691 10686 10682 10677 10674 10671 10668 10664 10661 10657 10653 10649 10647 10645 10645 10643 10639 10637 10637 10639 10639 10640 10644 10647 10649 10654 10660 10664
10766 10758 10750 10741 10733 10728 10722 10716 10712 10707 10705 10702 10699 10695 10692 10689 10684 10679 10674 10671 10668 10665 10661 10657 10653 10649 10646 10644 10643 10643 10642 10640 10638 10636 10637 10637 10637 10641 10643 10643 10647 10653 10657
10750 10741 10733 10729 10723 10719 10714 10707 10704 10703 10701 10697 10694 10691 10688 10685 10682 10675 10672 10667 10663 10661 10657 10653 10649 10646 10642 10640 10638 10638 10639 10638 10635 10636 10634 10634 10631 10631 10632 10636 10641 10646 10649
10736 10728 10723 10716 10713 10709 10705 10702 10697 10697 10695 10691 10688 10684 10683 10679 10676 10671 10664 10661 10656 10653 10650 10647 10644 10642 10639 10636 10633 10633 10633 10633 10632 10632 10630 10631 10631 10631 10631 10633 10636 10639 10642
10724 10718 10712 10709 10707 10704 10698 10695 10693 10691 10688 10685 10681 10678 10674 10671 10667 10663 10658 10653 10647 10644 10643 10640 10636 10633 10633 10631 10630 10628 10626 10627 10628 10627 10625 10625 10626 10625 10626 10628 10630 10632 10635
10714 10709 10706 10703 10699 10697 10693 10688 10688 10683 10680 10678 10673 10668 10664 10662 10658 10653 10649 10645 10641 10638 10634 10631 10629 10626 10624 10623 10622 10621 10621 10620 10620 10621 10620 10617 10619 10619 10619 10619 10621 10623 10627
10705 10703 10701 10698 10692 10689 10686 10682 10679 10673 10671 10667 10663 10657 10653 10651 10647 10643 10639 10635 10632 10628 10625 10622 10619 10617 10616 10614 10613 10612 10611 10610 10610 10611 10614 10611 10609 10611 10612 10613 10613 10616 10618
10701 10699 10697 10691 10686 10680 10677 10674 10669 10664 10661 10657 10652 10649 10644 10641 10636 10634 10630 10626 10621 10617 10612 10609 10606 10605 10603 10602 10601 10600 10599 10599 10599 10598 10599 10602 10599 10599 10600 10601 10603 10603 10607
10694 10694 10693 10687 10678 10671 10668 10663 10659 10653 10651 10647 10643 10639 10632 10630 10625 10622 10617 10612 10608 10604 10601 10598 10596 10593 10590 10587 10585 10584 10584 10581 10581 10583 10584 10586 10590 10586 10587 10589 10590 10592 10593
10692 10686 10692 10680 10668 10664 10661 10653 10649 10646 10642 10637 10633 10630 10621 10617 10611 10608 10603 10599 10595 10592 10589 10585 10582 10580 10577 10574 10572 10570 10569 10567 10567 10567 10566 10565 10568 10574 10573 10573 10575 10577 10580
10680 10679 10679 10674 10662 10655 10650 10645 10640 10636 10630 10626 10622 10619 10611 10609 10600 10597 10593 10587 10583 10579 10575 10571 10568 10564 10562 10559 10556 10555 10553 10552 10550 10549 10550 10550 10548 10548 10555 10556 10556 10558 10563
10669 10668 10666 10661 10652 10647 10644 10632 10630 10627 10621 10617 10610 10608 10597 10596 10587 10584 10579 10573 10568 10562 10558 10554 10552 10548 10543 10540 10538 10536 10532 10531 10530 10529 10528 10527 10530 10531 10528 10535 10537 10539 10539
10659 10658 10653 10648 10637 10634 10631 10626 10619 10614 10610 10605 10597 10596 10586 10582 10572 10569 10564 10558 10551 10545 10541 10536 10531 10528 10523 10515 10514 10514 10514 10509 10505 10500 10499 10503 10505 10505 10509 10507 10513 10515 10518
10651 10647 10643 10637 10630 10623 10622 10617 10608 10601 10596 10591 10585 10578 10572 10566 10558 10552 10544 10541 10533 10524 10518 10514 10509 10506 10502 10491 10485 10483 10488 10489 10479 10475 10474 10472 10472 10471 10476 10480 10483 10485 10491
10643 10637 10632 10627 10621 10613 10609 10605 10596 10588 10582 10575 10566 10560 10555 10547 10540 10530 10523 10516 10509 10501 10493 10487 10480 10474 10473 10466 10451 10442 10445 10452 10450 10448 10444 10440 10438 10437 10441 10439 10444 10453 10453
10630 10626 10621 10617 10611 10600 10594 10591 10582 10575 10567 10558 10551 10544 10535 10525 10515 10506 10495 10487 10479 10472 10464 10457 10450 10440 10434 10432 10426 10413 10402 10399 10403 10413 10411 10406 10398 10395 10398 10400 10400 10406 10412
10621 10614 10608 10603 10599 10591 10583 10573 10565 10557 10549 10540 10532 10523 10512 10500 10490 10478 10468 10459 10450 10439 10428 10419 10413 10404 10395 10390 10386 10377 10368 10361 10346 10338 10362 10363 10358 10345 10345 10353 10359 10361 10359
10609 10602 10596 10588 10584 10581 10573 10559 10549 10539 10529 10519 10509 10499 10488 10477 10465 10451 10440 10428 10416 10404 10392 10382 10373 10365 10357 10347 10336 10325 10317 10313 10307 10289 10289 10310 10316 10313 10302 10296 10315 10319 10319